TULLARI Weather Reports


time (UTC)temp
C
wind
direction
speed
KPH
gust
KPH
rain 1hr
cm
rain 24hr
cm
rain mn
cm
humidity
%
barometer
mb
20260507094730 9 138 9.7 12.9 0.00 0.00 0.00 58 1016.0
20260507092730 8 113 11.3 14.5 0.00 0.00 0.00 60 1016.0
20260507090731 7 116 11.3 14.5 0.00 0.00 0.00 59 1016.0
20260507084730 8 101 12.9 14.5 0.00 0.00 0.00 57 1016.0
20260507082730 8 98 11.3 14.5 0.00 0.00 0.00 57 1016.0
20260507080730 7 109 22.5 24.1 0.00 0.00 0.00 55 1016.0
20260507074730 7 111 24.1 25.7 0.00 0.00 0.00 52 1016.0
20260507072730 7 97 22.5 24.1 0.00 0.00 0.00 56 1015.9
20260507070729 7 85 22.5 24.1 0.00 0.00 0.00 51 1016.0
20260507064730 7 81 22.5 25.7 0.00 0.00 0.00 52 1015.9
20260507062729 7 81 24.1 29.0 0.00 0.00 0.00 47 1015.8
20260507060729 7 78 20.9 24.1 0.00 0.00 0.00 49 1015.7
20260507054730 6 69 20.9 24.1 0.00 0.00 0.00 43 1015.6
20260507052729 6 59 17.7 24.1 0.00 0.00 0.00 47 1015.5
20260507050728 5 53 16.1 20.9 0.00 0.00 0.00 52 1015.5
20260507044730 5 51 16.1 24.1 0.00 0.00 0.00 51 1015.4
20260507042728 5 56 19.3 24.1 0.00 0.00 0.00 47 1015.4
20260507040730 5 52 17.7 24.1 0.00 0.00 0.00 50 1015.4
20260507034729 5 54 17.7 24.1 0.00 0.00 0.00 49 1015.3
20260507032730 5 56 20.9 27.4 0.00 0.00 0.00 43 1015.1
20260507030730 5 61 22.5 27.4 0.00 0.00 0.00 47 1015.1
20260507024729 4 61 22.5 27.4 0.00 0.00 0.00 48 1015.1
20260507022730 4 64 22.5 25.7 0.00 0.00 0.00 49 1015.0
20260507020729 5 59 24.1 27.4 0.00 0.00 0.00 48 1014.9
20260507014729 4 58 22.5 25.7 0.00 0.00 0.00 48 1015.0
20260507012729 5 61 24.1 29.0 0.00 0.00 0.00 46 1014.8
20260507004729 5 48 17.7 19.3 0.00 0.00 0.00 50 1014.7
20260507002729 5 54 22.5 30.6 0.00 0.00 0.00 45 1014.5
20260507000729 5 54 20.9 29.0 0.00 0.00 0.00 47 1014.5
20260506234729 5 48 20.9 25.7 0.00 0.00 0.00 50 1014.4
20260506232728 5 43 19.3 22.5 0.00 0.00 0.00 52 1014.4
20260506230730 5 41 17.7 20.9 0.00 0.00 0.00 52 1014.5
20260506224728 5 32 19.3 24.1 0.00 0.00 0.00 54 1014.6
20260506222729 5 23 22.5 24.1 0.00 0.00 0.00 53 1014.6
20260506220729 5 15 19.3 22.5 0.00 0.00 0.00 54 1014.5
20260506214728 5 8 20.9 24.1 0.00 0.00 0.00 53 1014.5
20260506212728 5 2 20.9 25.7 0.00 0.00 0.00 52 1014.4
20260506210728 5 356 20.9 24.1 0.00 0.00 0.00 60 1014.4
20260506204728 6 353 19.3 24.1 0.00 0.00 0.00 68 1014.4
20260506202728 6 339 17.7 20.9 0.00 0.00 0.00 66 1014.5
20260506200728 6 332 14.5 16.1 0.00 0.00 0.00 69 1014.6
20260506194728 6 324 11.3 14.5 0.00 0.00 0.00 69 1014.6
20260506192727 6 321 12.9 14.5 0.00 0.00 0.00 68 1014.6
20260506190727 6 316 14.5 17.7 0.00 0.00 0.00 63 1014.6
20260506184727 6 315 16.1 19.3 0.00 0.00 0.00 55 1014.5
20260506182728 7 312 19.3 24.1 0.00 0.00 0.00 53 1014.3
20260506174728 7 297 16.1 22.5 0.00 0.00 0.00 57 1014.4
20260506172726 8 293 14.5 20.9 0.00 0.00 0.00 56 1014.5
20260506164726 8 291 14.5 24.1 0.00 0.00 0.00 56 1014.5
20260506162727 8 290 14.5 24.1 0.00 0.00 0.00 62 1014.4
20260506160727 8 288 16.1 20.9 0.00 0.00 0.00 65 1014.4
20260506154727 7 292 16.1 24.1 0.00 0.00 0.00 65 1014.4
20260506152727 7 280 17.7 24.1 0.00 0.00 0.00 68 1014.6
20260506150726 7 278 20.9 25.7 0.00 0.00 0.00 64 1014.6
20260506144726 7 273 25.7 27.4 0.00 0.00 0.00 63 1014.8
20260506142726 7 267 25.7 30.6 0.00 0.00 0.00 62 1014.9
20260506140726 7 252 24.1 29.0 0.00 0.00 0.00 62 1014.9
20260506134727 7 252 24.1 29.0 0.00 0.00 0.00 66 1014.9
20260506132726 7 248 24.1 27.4 0.00 0.00 0.00 71 1015.0
20260506130726 8 245 27.4 30.6 0.00 0.00 0.00 68 1014.9
20260506124726 8 241 24.1 27.4 0.00 0.00 0.00 66 1014.9
20260506122726 7 244 25.7 29.0 0.00 0.00 0.00 72 1014.9
20260506120726 7 244 25.7 27.4 0.00 0.00 0.00 74 1015.0
20260506114726 7 242 25.7 27.4 0.00 0.00 0.00 75 1015.0
20260506112727 7 233 25.7 29.0 0.00 0.00 0.00 74 1015.0
20260506110726 8 227 25.7 29.0 0.00 0.00 0.00 72 1015.0
20260506104727 8 220 24.1 27.4 0.00 0.00 0.00 71 1015.0
20260506102728 8 218 20.9 22.5 0.00 0.00 0.00 72 1014.9
20260506100729 8 221 20.9 22.5 0.00 0.00 0.00 75 1014.8